Regional Weather Roundup
Issued by NWS

Home | Current Version | Previous Version | Graphics & Text | Print | Product List | Glossary On
Versions: 1 2 3 4 5 6 7 8 9 10 11 12 13 14 15 16 17 18 19 20 21 22 23 24 25 26 27 28 29 30 31 32 33 34 35 36 37 38 39 40 41 42 43 44 45 46 47 48 49 50
000
ASUS43 KBIS 231110
RWRND

NORTH DAKOTA REGIONAL WEATHER ROUNDUP
NATIONAL WEATHER SERVICE BISMARCK ND
600 AM CDT WED JUL 23 2014

NOTE: "FAIR" INDICATES FEW OR NO CLOUDS BELOW 12,000 FEET WITH NO
SIGNIFICANT WEATHER AND/OR OBSTRUCTIONS TO VISIBILITY.


NDZ001>003-009>011-017-231200-
NORTHWEST NORTH DAKOTA

CITY           SKY/WX    TMP DP  RH WIND       PRES   REMARKS
WILLISTON      CLEAR     65  62  90 E5        30.22S
MINOT          MOCLDY    64  63  94 NE8       30.25S FOG
MINOT AFB      MOCLDY    64  64 100 E10       30.25S
$$

NDZ018>021-031>035-040>046-231200-
SOUTHWEST NORTH DAKOTA

CITY           SKY/WX    TMP DP  RH WIND       PRES   REMARKS
BISMARCK       CLOUDY    65  61  87 E8        30.26S
DICKINSON      CLEAR     60  58  92 E9        30.23S
GARRISON         N/A     65  64  97 E9        30.25S
HETTINGER ARPT CLEAR     60  57  89 SE7       30.25S
$$

NDZ004>008-012>016-024-026-027-054-231200-
NORTHEAST NORTH DAKOTA

CITY           SKY/WX    TMP DP  RH WIND       PRES   REMARKS
GRAND FORKS    MOCLDY    59  57  93 N3        30.28S
GRND FRKS AFB  PTCLDY    58  58 100 N5        30.30R
DEVILS LAKE    MOCLDY    61  52  72 CALM      30.30R
$$

NDZ022-023-025-028>030-036>039-047>053-231200-
SOUTHEAST NORTH DAKOTA

CITY           SKY/WX    TMP DP  RH WIND       PRES   REMARKS
FARGO          PTCLDY    58  55  90 CALM      30.27S
JAMESTOWN      PTCLDY    61  58  90 CALM      30.29R
$$



USA.gov is the U.S. government's official web portal to all federal, state and local government web resources and services.